Twin Bridges, CA

7:41 AM PDT on July 25, 2016 (GMT -0700)
Lake Tahoe

Weather History for KTVL - March, 2013

Change the Weather History Date:

Tuesday, March 12, 2013

  Actual Average Record
Temperature  
Mean Temperature 44 °F 35 °F  
Max Temperature 63 °F 48 °F 65 °F (2007)
Min Temperature 24 °F 22 °F -1 °F (1980)
Degree Days  
Heating Degree Days 21 30  
Month to date heating degree days 348 372  
Since 1 July heating degree days 5366 5609  
Cooling Degree Days 0 0  
Month to date cooling degree days 0 0  
Year to date cooling degree days 0 0  
Moisture  
Dew Point 25 °F    
Average Humidity 49    
Maximum Humidity 81    
Minimum Humidity 17    
Precipitation  
Precipitation 0.00 in - 1.89 in (1938)
Month to date precipitation 0.48  
Year to date precipitation 1.38  
Sea Level Pressure  
Sea Level Pressure 30.23 in    
Wind  
Wind Speed 2 mph (NE)    
Max Wind Speed 12 mph    
Max Gust Speed 14 mph    
Visibility 10 miles    
Events      
T = Trace of Precipitation, MM = Missing Value Source: NWS Daily Summary

Daily Weather History Graph

Daily Weather History Graph

Search for Another Location

Airport or City:

Trip Planner

Search our weather history database for the weather conditions in past years. The results will help you decide how hot, cold, wet, or windy it might be!

Date:

Astronomy

Mar. 12, 2013 Rise Set
Actual Time 7:15 AM PDT 7:04 PM PDT
Civil Twilight 6:48 AM PDT 7:30 PM PDT
Nautical Twilight 6:17 AM PDT 8:01 PM PDT
Astronomical Twilight 5:46 AM PDT 8:33 PM PDT
Moon 7:25 AM PDT (3/12) 8:23 PM PDT (3/12)
Length of Visible Light 12h 42m
Length of Day
11h 49m
New Moon, 1% of the Moon is Illuminated
Mar 12
New Moon
Mar 19
First Quarter
Mar 27
Full
Apr 2
Last Quarter
Apr 10
New

Hourly Weather History & Observations

Time (PDT) Temp. Windchill Dew Point Humidity Pressure Visibility Wind Dir Wind Speed Gust Speed Precip Events Conditions
12:53 AM 30.0 °F - 23.0 °F 75% 30.22 in 10.0 mi Calm Calm - N/A   Clear
1:53 AM 28.9 °F - 23.0 °F 78% 30.24 in 10.0 mi Calm Calm - N/A   Clear
2:53 AM 28.9 °F - 23.0 °F 78% 30.22 in 10.0 mi Calm Calm - N/A   Clear
3:53 AM 28.0 °F - 21.9 °F 78% 30.20 in 10.0 mi Calm Calm - N/A   Clear
4:53 AM 28.0 °F - 21.0 °F 75% 30.20 in 10.0 mi Calm Calm - N/A   Clear
5:53 AM 26.1 °F 20.5 °F 21.0 °F 81% 30.22 in 10.0 mi South 4.6 mph - N/A   Clear
6:53 AM 26.1 °F - 19.9 °F 78% 30.26 in 10.0 mi Calm Calm - N/A   Clear
7:53 AM 25.0 °F - 19.9 °F 81% 30.28 in 10.0 mi Calm Calm - N/A   Clear
8:53 AM 28.9 °F 25.2 °F 23.0 °F 78% 30.30 in 10.0 mi South 3.5 mph - N/A   Clear
9:53 AM 39.9 °F - 25.0 °F 55% 30.27 in 10.0 mi Calm Calm - N/A   Clear
10:53 AM 48.9 °F - 25.0 °F 39% 30.25 in 10.0 mi NNE 5.8 mph - N/A   Clear
11:53 AM 53.1 °F - 28.0 °F 38% 30.23 in 10.0 mi NNE 5.8 mph - N/A   Clear
12:53 PM 55.0 °F - 27.0 °F 34% 30.22 in 10.0 mi NE 5.8 mph - N/A   Clear
1:53 PM 55.0 °F - 30.9 °F 40% 30.22 in 10.0 mi North 5.8 mph - N/A   Clear
2:53 PM 57.9 °F - 28.9 °F 33% 30.19 in 10.0 mi NE 5.8 mph - N/A   Clear
3:53 PM 62.1 °F - 18.0 °F 18% 30.17 in 10.0 mi NNE 4.6 mph - N/A   Clear
4:53 PM 62.1 °F - 23.0 °F 22% 30.16 in 10.0 mi NNE 5.8 mph - N/A   Clear
5:53 PM 54.0 °F - 25.0 °F 33% 30.20 in 10.0 mi NNE 6.9 mph - N/A   Clear
6:53 PM 46.9 °F - 30.0 °F 52% 30.23 in 10.0 mi Calm Calm - N/A   Clear
7:53 PM 43.0 °F - 27.0 °F 53% 30.27 in 10.0 mi Calm Calm - N/A   Clear
9:53 PM 39.0 °F - 28.0 °F 65% 30.26 in 10.0 mi Calm Calm - N/A   Clear
10:53 PM 37.0 °F - 28.0 °F 70% 30.26 in 10.0 mi Calm Calm - N/A   Clear